EW6087 Weather Reports


time (UTC)temp
F
wind
direction
speed
knots
gust
knots
rain 1hr
in
rain 24hr
in
rain mn
in
humidity
%
barometer
mb
20260510021532 75 169 0.0 0.0 0.00 0.01 0.01 53 1007.6
20260510020030 75 169 0.0 0.0 0.00 0.01 0.01 52 1007.1
20260510014534 76 169 0.0 0.0 0.00 0.01 0.01 52 1006.3
20260510013027 76 169 0.0 0.0 0.00 0.01 0.01 51 1006.2
20260510011527 77 169 0.0 0.9 0.00 0.01 0.01 48 1006.4
20260510010029 78 169 0.0 0.0 0.00 0.01 0.01 47 1006.2
20260510004525 79 126 0.0 0.0 0.00 0.01 0.01 47 1006.5
20260510003025 80 126 0.0 0.0 0.00 0.01 0.01 46 1006.3
20260510001524 81 147 0.0 2.6 0.00 0.01 0.01 45 1006.5
20260510000023 82 115 0.0 5.2 0.00 0.01 0.01 44 1006.4
20260509234530 84 192 0.0 4.3 0.00 0.01 0.01 42 1006.4
20260509233022 85 103 0.9 3.5 0.00 0.01 0.01 40 1006.5
20260509231521 85 244 0.9 2.6 0.00 0.01 0.01 36 1006.6
20260509230022 85 148 0.9 4.3 0.00 0.01 0.01 35 1006.8
20260509224518 86 166 0.9 7.0 0.00 0.20 0.01 36 1007.0
20260509223016 85 174 0.9 3.5 0.00 0.20 0.01 34 1007.3
20260509221514 85 180 0.9 2.6 0.00 0.20 0.01 33 1007.4
20260509220013 85 184 0.9 2.6 0.00 0.20 0.01 34 1007.6
20260509214515 85 180 0.0 2.6 0.00 0.20 0.01 37 1007.5
20260509213012 85 181 0.0 3.5 0.00 0.20 0.01 34 1007.5
20260509211509 85 205 0.9 2.6 0.00 0.20 0.01 36 1007.8
20260509210016 87 207 0.0 2.6 0.00 0.20 0.01 35 1008.0
20260509204506 87 236 0.0 3.5 0.00 0.20 0.01 36 1008.1
20260509203007 87 158 0.0 2.6 0.00 0.20 0.01 38 1008.2
20260509201502 86 141 0.0 1.7 0.00 0.20 0.01 40 1008.4
20260509200002 86 141 0.9 3.5 0.00 0.20 0.01 34 1008.6
20260509194601 86 226 0.0 1.7 0.00 0.20 0.01 34 1008.7
20260509193113 85 227 0.9 4.3 0.00 0.20 0.01 36 1009.0
20260509191554 84 265 0.9 1.7 0.00 0.20 0.01 32 1009.1
20260509190054 84 266 0.9 3.5 0.00 0.20 0.01 36 1009.3
20260509184604 84 308 0.0 3.5 0.00 0.20 0.01 38 1009.5
20260509183049 83 302 0.0 2.6 0.00 0.20 0.01 36 1009.6
20260509181548 83 309 0.0 3.5 0.00 0.20 0.01 43 1009.8
20260509180047 83 259 0.0 3.5 0.00 0.20 0.01 43 1009.9
20260509174544 82 273 0.0 2.6 0.00 0.20 0.01 43 1010.4
20260509173049 81 226 0.0 3.5 0.00 0.20 0.01 43 1010.4
20260509171544 80 226 0.0 2.6 0.00 0.20 0.01 49 1010.6
20260509170033 78 232 0.9 3.5 0.00 0.20 0.01 58 1010.8
20260509164529 77 232 0.0 2.6 0.00 0.20 0.01 65 1010.7
20260509163024 75 209 0.0 3.5 0.00 0.20 0.01 71 1011.0
20260509161526 72 159 0.0 0.9 0.00 0.20 0.01 69 1011.1
20260509160019 71 152 0.0 1.7 0.00 0.20 0.01 76 1011.0
20260509154519 69 175 0.0 0.0 0.00 0.20 0.01 80 1011.0
20260509153012 67 105 0.0 0.0 0.00 0.20 0.01 83 1010.8
20260509151510 67 105 0.0 0.0 0.00 0.20 0.01 84 1010.9
20260509150123 66 105 0.0 0.0 0.00 0.20 0.01 96 1010.7
20260509144707 63 105 0.0 0.0 0.00 0.20 0.01 97 1010.5
20260509143052 61 105 0.0 0.0 0.00 0.20 0.01 97 1010.7
20260509141549 60 105 0.0 0.0 0.00 0.20 0.01 97 1011.0
20260509140046 59 107 0.0 0.0 0.00 0.20 0.01 96 1010.8
20260509134548 59 107 0.0 0.0 0.00 0.20 0.01 97 1010.7
20260509133047 58 107 0.0 0.0 0.00 0.20 0.01 96 1010.5
20260509131543 57 107 0.0 0.0 0.00 0.20 0.01 96 1010.5
20260509130040 56 107 0.0 0.0 0.00 0.20 0.01 97 1010.2
20260509124557 55 107 0.0 0.0 0.01 0.20 0.01 96 1010.0
20260509123039 54 107 0.0 0.0 0.01 0.20 0.01 96 1009.9
20260509121543 54 108 0.0 0.0 0.01 0.20 0.01 95 1009.8
20260509120039 54 108 0.0 0.0 0.01 0.20 0.01 95 1009.6
20260509114535 54 108 0.0 0.0 0.00 0.19 0.00 95 1009.5
20260509113035 55 108 0.0 0.0 0.00 0.19 0.00 95 1009.2
20260509111533 55 108 0.0 0.0 0.00 0.19 0.00 95 1009.1
20260509110032 54 108 0.0 0.0 0.00 0.19 0.00 95 1009.1
20260509104536 55 108 0.0 0.0 0.00 0.19 0.00 95 1009.1
20260509103030 54 108 0.0 0.0 0.00 0.19 0.00 95 1009.3
20260509101529 54 108 0.0 0.0 0.00 0.19 0.00 94 1009.3
20260509100036 55 108 0.0 0.0 0.00 0.19 0.00 94 1009.4
20260509094525 55 108 0.0 0.0 0.00 0.19 0.00 94 1009.8
20260509093023 55 108 0.0 0.0 0.00 0.19 0.00 94 1009.8
20260509091521 56 108 0.0 0.0 0.00 0.19 0.00 94 1009.6
20260509090018 56 108 0.0 0.0 0.00 0.19 0.00 94 1009.7
20260509084518 57 108 0.0 0.0 0.00 0.19 0.00 94 1009.4
20260509083019 57 108 0.0 0.0 0.00 0.19 0.00 94 1009.5
20260509081521 57 108 0.0 0.0 0.00 0.19 0.00 93 1009.6
20260509080014 57 108 0.0 0.0 0.00 0.19 0.00 93 1009.8
20260509074510 58 108 0.0 0.0 0.00 0.19 0.00 93 1010.0
20260509073009 58 108 0.0 0.0 0.00 0.19 0.00 93 1010.2
20260509071513 58 108 0.0 0.0 0.00 0.19 0.00 93 1010.2
20260509070006 59 108 0.0 0.0 0.00 0.19 0.00 93 1010.1
20260509064505 59 108 0.0 0.0 0.00 0.19 0.00 92 1009.9
20260509063003 59 108 0.0 0.0 0.00 0.19 0.00 92 1010.1
20260509061502 60 108 0.0 0.0 0.00 0.19 0.00 92 1010.2
20260509060108 60 108 0.0 0.0 0.00 0.19 0.00 92 1010.2
20260509054613 60 108 0.0 0.0 0.00 0.19 0.00 91 1010.1
20260509053104 61 108 0.0 0.0 0.00 0.19 0.00 91 1010.1
20260509051558 61 108 0.0 0.0 0.00 0.19 0.00 91 1010.1
20260509050057 62 108 0.0 0.0 0.00 0.19 0.00 91 1010.0
20260509044552 62 108 0.0 0.0 0.00 0.19 0.19 92 1010.1
20260509043050 62 108 0.0 0.0 0.00 0.19 0.19 93 1010.2
20260509041550 61 108 0.0 0.0 0.00 0.19 0.19 93 1010.2
20260509040054 62 108 0.0 0.0 0.00 0.19 0.19 93 1009.9
20260509034559 62 108 0.0 0.0 0.00 0.19 0.19 93 1009.6
20260509033049 62 108 0.0 0.0 0.00 0.19 0.19 94 1009.3
20260509031557 62 108 0.0 0.0 0.00 0.19 0.19 93 1008.9
20260509030048 62 108 0.0 0.0 0.00 0.19 0.19 93 1008.4
20260509024547 63 108 0.0 0.0 0.00 0.19 0.19 92 1008.1
20260509023055 63 108 0.0 0.0 0.00 0.19 0.19 93 1008.1